Tri-Cities, TN

1:39 PM EDT on October 21, 2017 (GMT -0400)
Tri-Cities Regional Tennessee / Virginia

Weather History for KTRI - March, 2014

Change the Weather History Date:

Sunday, March 23, 2014

  Actual Average Record
Temperature  
Mean Temperature 43 °F 49 °F  
Max Temperature 53 °F 61 °F 79 °F (1966)
Min Temperature 32 °F 36 °F 18 °F (2002)
Degree Days  
Heating Degree Days 22 16  
Month to date heating degree days 447 446  
Since 1 July heating degree days 3942 3828  
Cooling Degree Days 0 0  
Month to date cooling degree days 0 0  
Year to date cooling degree days 0 0  
Moisture  
Dew Point 29 °F    
Average Humidity 53    
Maximum Humidity 76    
Minimum Humidity 30    
Precipitation  
Precipitation 0.02 in 0.11 in 1.04 in (2011)
Month to date precipitation 1.58 2.53  
Year to date precipitation 6.64 9.35  
Snow  
Snow 0.00 in 0.00 in - ()
Month to date snowfall 0.2 1.1  
Since 1 July snowfall 12.5 11.9  
Snow Depth 0.00 in    
Sea Level Pressure  
Sea Level Pressure 30.06 in    
Wind  
Wind Speed 7 mph (NNW)    
Max Wind Speed 17 mph    
Max Gust Speed 22 mph    
Visibility 9 miles    
Events Rain    
T = Trace of Precipitation, MM = Missing Value Source: NWS Daily Summary

Daily Weather History Graph

Daily Weather History Graph

Search for Another Location

Airport or City:

Trip Planner

Search our weather history database for the weather conditions in past years. The results will help you decide how hot, cold, wet, or windy it might be!

Date:

Astronomy

Mar. 23, 2014 Rise Set
Actual Time 7:28 AM EDT 7:44 PM EDT
Civil Twilight 7:03 AM EDT 8:09 PM EDT
Nautical Twilight 6:32 AM EDT 8:40 PM EDT
Astronomical Twilight 6:02 AM EDT 9:10 PM EDT
Moon 1:51 AM EDT (3/23) 12:16 PM EDT (3/23)
Length of Visible Light 13h 06m
Length of Day
12h 15m
Waning Gibbous, 55% of the Moon is Illuminated
Mar 23
Waning Gibbous
Mar 23
Last Quarter
Mar 30
New
Apr 7
First Quarter
Apr 15
Full

Hourly Weather History & Observations

Time (EDT) Temp. Windchill Dew Point Humidity Pressure Visibility Wind Dir Wind Speed Gust Speed Precip Events Conditions
12:53 AM 53.1 °F - 30.0 °F 41% 29.99 in 10.0 mi Calm Calm - N/A   Mostly Cloudy
1:53 AM 48.9 °F - 32.0 °F 52% 29.99 in 10.0 mi Calm Calm - N/A   Mostly Cloudy
2:53 AM 46.9 °F - 28.0 °F 48% 29.98 in 10.0 mi North 3.5 mph - N/A   Mostly Cloudy
3:53 AM 48.0 °F - 26.1 °F 42% 29.97 in 10.0 mi Calm Calm - N/A   Mostly Cloudy
4:53 AM 46.9 °F - 28.9 °F 50% 29.97 in 10.0 mi Calm Calm - N/A   Overcast
5:53 AM 48.0 °F - 28.9 °F 48% 29.96 in 10.0 mi North 8.1 mph - N/A   Overcast
6:53 AM 46.9 °F - 30.0 °F 52% 30.00 in 10.0 mi North 6.9 mph - N/A   Overcast
7:53 AM 44.1 °F 40.1 °F 34.0 °F 68% 30.06 in 8.0 mi Variable 6.9 mph - 0.00 in Rain Light Rain
8:53 AM 44.1 °F - 36.0 °F 73% 30.06 in 10.0 mi Calm Calm - 0.01 in Rain Light Rain
9:53 AM 43.0 °F 39.5 °F 35.1 °F 74% 30.07 in 7.0 mi North 5.8 mph - 0.01 in Rain Light Rain
10:53 AM 43.0 °F 40.3 °F 36.0 °F 76% 30.07 in 9.0 mi NNW 4.6 mph - 0.00 in   Overcast
11:53 AM 45.0 °F 43.5 °F 36.0 °F 71% 30.07 in 9.0 mi Variable 3.5 mph - N/A   Overcast
12:30 PM 45.0 °F 40.1 °F 36.0 °F 71% 30.09 in 9.0 mi North 9.2 mph - N/A   Overcast
12:53 PM 44.1 °F 39.5 °F 35.1 °F 71% 30.07 in 9.0 mi North 8.1 mph - N/A   Overcast
1:24 PM 45.0 °F 41.8 °F 35.1 °F 68% 30.10 in 8.0 mi North 5.8 mph - N/A   Overcast
1:46 PM 46.0 °F 41.9 °F 35.1 °F 66% 30.10 in 8.0 mi NW 8.1 mph - N/A   Overcast
1:53 PM 45.0 °F 40.1 °F 34.0 °F 65% 30.07 in 8.0 mi North 9.2 mph - N/A   Overcast
2:43 PM 48.9 °F - 34.0 °F 56% 30.09 in 9.0 mi North 9.2 mph - N/A   Mostly Cloudy
2:53 PM 46.9 °F - 32.0 °F 56% 30.06 in 9.0 mi North 8.1 mph - N/A   Overcast
3:53 PM 51.1 °F - 28.0 °F 41% 30.03 in 10.0 mi Variable 6.9 mph - N/A   Scattered Clouds
4:53 PM 52.0 °F - 24.1 °F 34% 30.02 in 10.0 mi NW 13.8 mph - N/A   Scattered Clouds
5:53 PM 51.1 °F - 21.9 °F 32% 30.03 in 10.0 mi NW 10.4 mph - N/A   Scattered Clouds
6:53 PM 48.9 °F - 21.0 °F 33% 30.05 in 10.0 mi North 11.5 mph - N/A   Mostly Cloudy
7:53 PM 46.0 °F 40.6 °F 19.9 °F 35% 30.09 in 10.0 mi North 11.5 mph 20.7 mph N/A   Scattered Clouds
8:53 PM 42.1 °F 34.9 °F 21.0 °F 43% 30.13 in 10.0 mi NNW 13.8 mph 19.6 mph N/A   Scattered Clouds
9:53 PM 39.9 °F 32.9 °F 19.9 °F 45% 30.17 in 10.0 mi North 11.5 mph - N/A   Partly Cloudy
10:53 PM 37.9 °F 29.2 °F 19.9 °F 48% 30.20 in 10.0 mi North 15.0 mph - N/A   Clear
11:53 PM 35.1 °F 28.6 °F 18.0 °F 50% 30.20 in 10.0 mi North 8.1 mph - N/A   Clear